Location: Glass Lake
(42.6301°N, 73.5309°W)
Time: 09:08:48
(UTC+00:00)

BlueWalker 3 - Pass Details

Date: 15 October 2024
Orbit: 470 x 481 km, 53.2° (Epoch: 11 November)

Event Time Altitude Azimuth Distance (km) Brightness Sun altitude
Exits shadow 09:55:15 10° 326° (NW) 1,643 4.2 -14.1°
Reaches altitude 10° 09:55:17 10° 327° (NNW) 1,633 4.2 -14.1°
Maximum altitude 09:57:49 17° 10° (N) 1,249 4.1 -13.6°
Drops below altitude 10° 10:00:20 10° 54° (NE) 1,633 5.4 -13.2°
Sets 10:03:03 0° 74° (ENE) 2,512 7.1 -12.7°
